sat.trackr.live / text

‹ back to catalog

STARLINK-34183

NORAD 64254 · 2025-119X

PAYLOAD ACTIVE UNKNOWN

§ Identity

Operator
Country
US
Launch date
2025-06-03
Launch site
AFETR
Launch vehicle
Mass (kg)
RCS (m²)

Purposes: comms

External: N2YO · Heavens-Above · Gunter

§ Orbital elements

Epoch: 2026-09-20T18:58:55.354944Z

Period
94.27 min
Inclination
43.0036°
Eccentricity
0.0002223
Mean motion
15.27592523 rev/d
Perigee alt
481.5 km
Apogee alt
484.5 km
Semi-major
6,861.1 km
B*
5.4920e-4
RAAN
285.5608°
Arg perigee
290.2848°
Mean anomaly
69.7765°
Rev number
7,400

§ Raw data

STARLINK-341831 64254U 25119X   26263.79091846  .00014887  00000+0  54920-3 0  99922 64254  43.0036 285.5608 0002223 290.2848  69.7765 15.27592523 74007

JSON: /api/v1/satellites/64254 · /tle

For live sub-satellite position, see the globe view (requires WebGL).

§ Visibility from observer

Set your observer location to see the next 7 days of passes ≥ 10°. The values pass through the URL so the page stays shareable.

No JS? Fill the form by hand. The geolocation button needs JavaScript.